TimeMDT,TemperatureF,Dew PointF,Humidity,Sea Level PressureIn,VisibilityMPH,Wind Direction,Wind SpeedMPH,Gust SpeedMPH,PrecipitationIn,Events,Conditions,WindDirDegrees,DateUTC
12:53 AM,51.1,26.1,38,29.85,10.0,SE,6.9,-,N/A,,Clear,130,2013-05-31 06:53:00
1:53 AM,50.0,26.1,39,29.83,10.0,ESE,6.9,-,N/A,,Clear,120,2013-05-31 07:53:00
2:53 AM,48.9,27.0,43,29.84,10.0,SE,8.1,-,N/A,,Clear,140,2013-05-31 08:53:00
3:53 AM,48.9,28.0,44,29.83,10.0,SE,8.1,-,N/A,,Clear,140,2013-05-31 09:53:00
4:53 AM,48.0,28.9,48,29.86,10.0,SSE,5.8,-,N/A,,Scattered Clouds,160,2013-05-31 10:53:00
5:53 AM,48.9,28.9,46,29.88,10.0,SE,3.5,-,N/A,,Overcast,130,2013-05-31 11:53:00
6:53 AM,50.0,28.9,44,29.91,10.0,South,10.4,-,N/A,,Overcast,170,2013-05-31 12:53:00
7:53 AM,57.0,27.0,32,29.88,10.0,SE,8.1,-,N/A,,Clear,130,2013-05-31 13:53:00
8:53 AM,61.0,25.0,25,29.91,10.0,NNW,13.8,20.7,N/A,,Clear,330,2013-05-31 14:53:00
9:53 AM,63.0,24.1,23,29.91,10.0,North,12.7,-,N/A,,Clear,360,2013-05-31 15:53:00
10:53 AM,64.0,21.9,20,29.92,10.0,North,12.7,21.9,N/A,,Clear,360,2013-05-31 16:53:00
11:53 AM,66.9,18.0,15,29.92,10.0,NNW,18.4,26.5,N/A,,Clear,340,2013-05-31 17:53:00
12:53 PM,68.0,12.9,12,29.92,10.0,North,23.0,32.2,N/A,,Clear,350,2013-05-31 18:53:00
1:53 PM,69.1,12.0,11,29.91,5.0,North,19.6,27.6,N/A,,Haze,350,2013-05-31 19:53:00
2:26 PM,69.8,8.6,9,30.08,4.0,North,19.6,26.5,N/A,,Haze,360,2013-05-31 20:26:00
2:53 PM,71.1,12.0,10,29.91,9.0,NNW,15.0,25.3,N/A,,Clear,330,2013-05-31 20:53:00
3:53 PM,72.0,16.0,12,29.89,10.0,North,17.3,23.0,N/A,,Clear,350,2013-05-31 21:53:00
4:53 PM,72.0,15.1,11,29.89,10.0,NW,16.1,26.5,N/A,,Partly Cloudy,320,2013-05-31 22:53:00
5:53 PM,71.1,12.9,11,29.89,10.0,NNW,11.5,-,N/A,,Clear,340,2013-05-31 23:53:00
6:53 PM,70.0,14.0,12,29.90,10.0,NW,8.1,-,N/A,,Clear,320,2013-06-01 00:53:00
7:53 PM,68.0,17.1,14,29.89,10.0,NNW,5.8,-,N/A,,Clear,340,2013-06-01 01:53:00
8:53 PM,64.9,6.1,10,29.92,10.0,NW,8.1,-,N/A,,Clear,320,2013-06-01 02:53:00
9:53 PM,57.9,10.0,15,29.97,10.0,West,6.9,-,N/A,,Clear,260,2013-06-01 03:53:00
10:53 PM,53.1,16.0,23,30.00,10.0,South,4.6,-,N/A,,Clear,180,2013-06-01 04:53:00
11:53 PM,46.9,17.1,30,30.03,10.0,ESE,5.8,-,N/A,,Clear,110,2013-06-01 05:53:00